sat.trackr.live / text

‹ back to catalog

STARLINK-30956

NORAD 58481 · 2023-186J

PAYLOAD ACTIVE UNKNOWN

§ Identity

Operator
Country
US
Launch date
2023-12-03
Launch site
AFETR
Launch vehicle
Mass (kg)
RCS (m²)

Purposes: comms

External: N2YO · Heavens-Above · Gunter

§ Orbital elements

Epoch: 2026-09-19T15:14:58.879680Z

Period
94.27 min
Inclination
43.0012°
Eccentricity
0.0000982
Mean motion
15.27577317 rev/d
Perigee alt
482.4 km
Apogee alt
483.7 km
Semi-major
6,861.2 km
B*
2.4688e-5
RAAN
25.9752°
Arg perigee
288.3443°
Mean anomaly
71.7302°
Rev number
15,581

§ Raw data

STARLINK-309561 58481U 23186J   26262.63540370  .00000417  00000+0  24688-4 0  99952 58481  43.0012  25.9752 0000982 288.3443  71.7302 15.27577317155814

JSON: /api/v1/satellites/58481 · /tle

For live sub-satellite position, see the globe view (requires WebGL).

§ Visibility from observer

Set your observer location to see the next 7 days of passes ≥ 10°. The values pass through the URL so the page stays shareable.

No JS? Fill the form by hand. The geolocation button needs JavaScript.